Defiance, OH

7:56 PM EDT on October 21, 2017 (GMT -0400)
Defiance Memorial

Weather History for KDFI - June, 2014

Change the Weather History Date:

Wednesday, June 25, 2014

  Actual Average Record
Temperature  
Mean Temperature 74 °F -  
Max Temperature 81 °F 83 °F 97 °F (1943)
Min Temperature 64 °F 59 °F 44 °F (1979)
Cooling Degree Days 8    
Growing Degree Days 24 (Base 50)    
Moisture  
Dew Point 67 °F    
Average Humidity 84    
Maximum Humidity 93    
Minimum Humidity 62    
Precipitation  
Precipitation 0.46 in - - ()
Sea Level Pressure  
Sea Level Pressure 29.93 in    
Wind  
Wind Speed 2 mph (ENE)    
Max Wind Speed 10 mph    
Max Gust Speed 29 mph    
Visibility 5 miles    
Events Fog , Rain , Thunderstorm    
Averages and records for this station are not official NWS values.
T = Trace of Precipitation, MM = Missing Value Source: NWS Daily Summary

Daily Weather History Graph

Daily Weather History Graph

Search for Another Location

Airport or City:

Trip Planner

Search our weather history database for the weather conditions in past years. The results will help you decide how hot, cold, wet, or windy it might be!

Date:

Astronomy

Jun. 25, 2014 Rise Set
Actual Time 6:05 AM EDT 9:15 PM EDT
Civil Twilight 5:31 AM EDT 9:48 PM EDT
Nautical Twilight 4:48 AM EDT 10:32 PM EDT
Astronomical Twilight 3:56 AM EDT 11:24 PM EDT
Moon 4:57 AM EDT (6/25) 7:45 PM EDT (6/25)
Length of Visible Light 16h 17m
Length of Day
15h 09m
Waning Crescent, 3% of the Moon is Illuminated
Jun 25
Waning Crescent
Jun 27
New
Jul 5
First Quarter
Jul 12
Full
Jul 18
Last Quarter

Hourly Weather History & Observations

Time (EDT) Temp. Heat Index Dew Point Humidity Pressure Visibility Wind Dir Wind Speed Gust Speed Precip Events Conditions
12:21 AM 70.0 °F - 66.9 °F 90% 29.89 in 2.5 mi Calm Calm - N/A   Overcast
12:31 AM 70.0 °F - 66.9 °F 90% 29.90 in 4.0 mi Calm Calm - N/A   Overcast
12:53 AM 70.0 °F - 66.9 °F 90% 29.88 in 5.0 mi Calm Calm - N/A   Overcast
1:44 AM 70.0 °F - 66.9 °F 90% 29.90 in 5.0 mi Calm Calm - N/A   Overcast
1:53 AM 70.0 °F - 66.9 °F 90% 29.88 in 5.0 mi Calm Calm - N/A   Overcast
2:53 AM 70.0 °F - 66.9 °F 90% 29.88 in 6.0 mi Calm Calm - N/A   Overcast
3:11 AM 70.0 °F - 66.9 °F 90% 29.90 in 6.0 mi Calm Calm - N/A   Overcast
3:53 AM 69.1 °F - 66.0 °F 90% 29.87 in 1.8 mi Calm Calm - N/A   Scattered Clouds
3:59 AM 69.1 °F - 66.0 °F 90% 29.89 in 0.8 mi Calm Calm - N/A   Mostly Cloudy
4:53 AM 68.0 °F - 66.0 °F 93% 29.88 in 0.5 mi SW 3.5 mph - N/A Fog Fog
5:03 AM 68.0 °F - 66.0 °F 93% 29.89 in 2.0 mi Calm Calm - N/A   Overcast
5:18 AM 69.1 °F - 66.9 °F 93% 29.89 in 1.2 mi Calm Calm - N/A   Overcast
5:36 AM 69.1 °F - 66.0 °F 90% 29.89 in 1.8 mi Calm Calm - N/A   Overcast
5:45 AM 69.1 °F - 66.0 °F 90% 29.89 in 2.0 mi Calm Calm - N/A   Overcast
5:53 AM 69.1 °F - 66.9 °F 93% 29.89 in 2.0 mi Calm Calm - N/A   Overcast
5:58 AM 69.1 °F - 66.9 °F 93% 29.90 in 3.0 mi Calm Calm - N/A   Overcast
6:17 AM 69.1 °F - 66.9 °F 93% 29.90 in 4.0 mi Calm Calm - N/A   Overcast
6:26 AM 69.1 °F - 66.9 °F 93% 29.90 in 2.0 mi Calm Calm - N/A   Overcast
6:43 AM 69.1 °F - 66.9 °F 93% 29.91 in 1.8 mi Calm Calm - N/A   Overcast
6:53 AM 70.0 °F - 66.9 °F 90% 29.91 in 1.5 mi Calm Calm - N/A   Overcast
7:12 AM 70.0 °F - 68.0 °F 93% 29.92 in 0.8 mi Variable 3.5 mph - N/A   Overcast
7:25 AM 70.0 °F - 68.0 °F 93% 29.92 in 1.2 mi Calm Calm - N/A   Overcast
7:38 AM 70.0 °F - 68.0 °F 93% 29.93 in 2.0 mi Calm Calm - N/A   Overcast
7:53 AM 71.1 °F - 68.0 °F 90% 29.92 in 3.0 mi NNW 4.6 mph - N/A   Overcast
8:03 AM 72.0 °F - 69.1 °F 91% 29.94 in 3.0 mi North 5.8 mph - N/A   Overcast
8:53 AM 73.9 °F - 68.0 °F 82% 29.93 in 7.0 mi North 5.8 mph - N/A   Mostly Cloudy
9:05 AM 73.9 °F - 68.0 °F 82% 29.95 in 7.0 mi North 4.6 mph - N/A   Overcast
9:31 AM 75.0 °F - 68.0 °F 79% 29.95 in 10.0 mi North 6.9 mph - N/A   Scattered Clouds
9:53 AM 75.9 °F - 68.0 °F 76% 29.94 in 10.0 mi North 8.1 mph - N/A   Partly Cloudy
10:53 AM 79.0 °F - 68.0 °F 69% 29.94 in 10.0 mi NNE 6.9 mph - N/A   Scattered Clouds
11:53 AM 81.0 °F 83.3 °F 66.9 °F 62% 29.94 in 10.0 mi Variable 6.9 mph - N/A   Mostly Cloudy
12:45 PM 77.0 °F - 68.0 °F 74% 29.96 in 1.5 mi Variable 5.8 mph - 0.08 in Rain , Thunderstorm Heavy Thunderstorms and Rain
12:53 PM 73.9 °F - 68.0 °F 82% 29.95 in 1.0 mi Variable 4.6 mph - 0.15 in Rain , Thunderstorm Heavy Thunderstorms and Rain
1:16 PM 73.0 °F - 66.0 °F 79% 29.96 in 2.5 mi Calm Calm - 0.08 in Rain Light Rain
1:24 PM 73.0 °F - 66.9 °F 81% 29.96 in 6.0 mi ESE 4.6 mph - 0.09 in Rain , Thunderstorm Light Rain
1:53 PM 75.0 °F - 68.0 °F 79% 29.95 in 10.0 mi Calm Calm - 0.09 in Rain , Thunderstorm Light Rain
2:27 PM 79.0 °F - 68.0 °F 69% 29.94 in 10.0 mi Variable 3.5 mph - 0.01 in   Partly Cloudy
2:53 PM 81.0 °F 84.1 °F 69.1 °F 67% 29.94 in 10.0 mi Calm Calm - 0.01 in   Clear
4:53 PM 79.0 °F - 66.9 °F 66% 29.93 in 10.0 mi South 4.6 mph - N/A   Partly Cloudy
5:30 PM 78.1 °F - 66.9 °F 68% 29.94 in 10.0 mi ESE 3.5 mph - N/A Thunderstorm Clear
5:53 PM 78.1 °F - 69.1 °F 74% 29.94 in 9.0 mi SSW 3.5 mph - 0.01 in Rain , Thunderstorm Light Rain
6:08 PM 78.1 °F - 68.0 °F 71% 29.94 in 10.0 mi SSW 3.5 mph - 0.00 in   Overcast
6:53 PM 78.1 °F - 70.0 °F 76% 29.94 in 10.0 mi SW 3.5 mph - 0.00 in   Clear
7:10 PM 77.0 °F - 66.9 °F 71% 29.95 in 10.0 mi East 6.9 mph - N/A   Mostly Cloudy
7:45 PM 75.0 °F - 66.0 °F 73% 29.96 in 10.0 mi East 4.6 mph - N/A   Scattered Clouds
7:53 PM 75.0 °F - 66.0 °F 73% 29.95 in 10.0 mi East 3.5 mph - N/A   Mostly Cloudy
9:34 PM 69.1 °F - 64.9 °F 87% 29.97 in 3.0 mi East 6.9 mph - 0.10 in Rain Light Rain
10:53 PM 68.0 °F - 64.9 °F 90% 29.99 in 9.0 mi Calm Calm - N/A   Clear
11:04 PM 66.9 °F - 64.9 °F 93% 30.01 in 9.0 mi Calm Calm - N/A Thunderstorm Clear
11:28 PM 66.0 °F - 61.0 °F 84% 30.02 in 2.0 mi NNW 10.4 mph 28.8 mph 0.15 in Rain , Thunderstorm Heavy Rain
11:35 PM 66.0 °F - 62.1 °F 87% 30.01 in 1.5 mi South 4.6 mph - 0.18 in Rain , Thunderstorm Heavy Rain
11:37 PM 66.0 °F - 62.1 °F 87% 30.01 in 2.0 mi South 4.6 mph - 0.18 in Rain Rain
11:53 PM 64.9 °F - 62.1 °F 90% 30.01 in 8.0 mi Calm Calm - 0.20 in Rain Light Rain